Location: Huberhof
(49.2050°N, 7.4980°E)
Time: 05:08:34
(UTC+00:00)

CZ-4 R/B - Pass Details

Date: 29 October 2020
Orbit: 531 x 598 km, 97.7° (Epoch: 25 November)

Event Time Altitude Azimuth Distance (km) Brightness Sun altitude
Rises 17:24:16 0° 147° (SSE) 2,694 4.6 -12.1°
Reaches altitude 10° 17:26:27 10° 141° (SE) 1,798 3.6 -12.4°
Maximum altitude 17:30:07 42° 70° (ENE) 779 1.6 -13.0°
Drops below altitude 10° 17:33:46 10° 359° (N) 1,796 3.9 -13.6°
Sets 17:35:57 0° 353° (N) 2,691 4.9 -14.0°
